| time (UTC) | temp C | wind direction | speed KPH | gust KPH | rain 1hr cm | rain 24hr cm | rain mn cm | humidity % | barometer mb |
| 20260509213023 | 30 | 285 | 0.0 | 14.5 | 0.00 | 0.00 | 0.00 | 27 | 1011.3 |
| 20260509211521 | 30 | 296 | 0.0 | 17.7 | 0.00 | 0.00 | 0.00 | 27 | 1011.4 |
| 20260509210028 | 30 | 213 | 0.0 | 12.9 | 0.00 | 0.00 | 0.00 | 25 | 1011.4 |
| 20260509204516 | 30 | 313 | 0.0 | 16.1 | 0.00 | 0.00 | 0.00 | 21 | 1011.7 |
| 20260509203017 | 30 | 306 | 0.0 | 3.2 | 0.00 | 0.00 | 0.00 | 21 | 1011.9 |
| 20260509201513 | 30 | 298 | 0.0 | 16.1 | 0.00 | 0.00 | 0.00 | 21 | 1011.9 |
| 20260509200011 | 30 | 309 | 0.0 | 11.3 | 0.00 | 0.00 | 0.00 | 18 | 1012.0 |
| 20260509194509 | 30 | 307 | 0.0 | 9.7 | 0.00 | 0.00 | 0.00 | 18 | 1012.1 |
| 20260509193012 | 30 | 327 | 0.0 | 1.6 | 0.00 | 0.00 | 0.00 | 17 | 1012.1 |
| 20260509191508 | 30 | 310 | 0.0 | 6.4 | 0.00 | 0.00 | 0.00 | 18 | 1012.3 |
| 20260509190110 | 30 | 313 | 0.0 | 12.9 | 0.00 | 0.00 | 0.00 | 19 | 1012.3 |
| 20260509184505 | 30 | 302 | 0.0 | 12.9 | 0.00 | 0.00 | 0.00 | 19 | 1012.3 |
| 20260509183004 | 30 | 342 | 0.0 | 1.6 | 0.00 | 0.00 | 0.00 | 18 | 1012.4 |
| 20260509181502 | 30 | 306 | 0.0 | 1.6 | 0.00 | 0.00 | 0.00 | 18 | 1012.4 |
| 20260509180101 | 29 | 280 | 0.0 | 1.6 | 0.00 | 0.00 | 0.00 | 20 | 1012.3 |
| 20260509174555 | 28 | 300 | 0.0 | 0.0 | 0.00 | 0.00 | 0.00 | 18 | 1012.3 |
| 20260509173052 | 27 | 300 | 0.0 | 0.0 | 0.00 | 0.00 | 0.00 | 19 | 1012.3 |
| 20260509171548 | 26 | 304 | 0.0 | 0.0 | 0.00 | 0.00 | 0.00 | 21 | 1012.4 |
| 20260509170043 | 26 | 310 | 0.0 | 0.0 | 0.00 | 0.00 | 0.00 | 23 | 1012.5 |
| 20260509164547 | 24 | 300 | 0.0 | 0.0 | 0.00 | 0.00 | 0.00 | 19 | 1012.4 |
| 20260509163037 | 23 | 331 | 0.0 | 0.0 | 0.00 | 0.00 | 0.00 | 24 | 1012.3 |
| 20260509161530 | 21 | 308 | 0.0 | 0.0 | 0.00 | 0.00 | 0.00 | 33 | 1012.2 |
| 20260509160026 | 19 | 307 | 0.0 | 0.0 | 0.00 | 0.00 | 0.00 | 35 | 1012.1 |
| 20260509154521 | 16 | 307 | 0.0 | 0.0 | 0.00 | 0.00 | 0.00 | 48 | 1011.9 |
| 20260509153017 | 13 | 307 | 0.0 | 0.0 | 0.00 | 0.00 | 0.00 | 55 | 1012.1 |
| 20260509151513 | 12 | 307 | 0.0 | 0.0 | 0.00 | 0.00 | 0.00 | 62 | 1012.1 |
| 20260509150016 | 11 | 307 | 0.0 | 0.0 | 0.00 | 0.00 | 0.00 | 72 | 1012.0 |
| 20260509144505 | 11 | 307 | 0.0 | 0.0 | 0.00 | 0.00 | 0.00 | 75 | 1012.1 |
| 20260509143002 | 10 | 307 | 0.0 | 0.0 | 0.00 | 0.00 | 0.00 | 74 | 1012.2 |
| 20260509141600 | 9 | 307 | 0.0 | 0.0 | 0.00 | 0.00 | 0.00 | 73 | 1012.1 |
| 20260509140104 | 9 | 307 | 0.0 | 0.0 | 0.00 | 0.00 | 0.00 | 70 | 1011.9 |
| 20260509134626 | 8 | 307 | 0.0 | 0.0 | 0.00 | 0.00 | 0.00 | 70 | 1011.8 |
| 20260509133058 | 8 | 307 | 0.0 | 0.0 | 0.00 | 0.00 | 0.00 | 71 | 1011.7 |
| 20260509131555 | 8 | 307 | 0.0 | 0.0 | 0.00 | 0.00 | 0.00 | 69 | 1011.7 |
| 20260509130053 | 7 | 307 | 0.0 | 0.0 | 0.00 | 0.00 | 0.00 | 67 | 1011.7 |
| 20260509124552 | 7 | 307 | 0.0 | 0.0 | 0.00 | 0.00 | 0.00 | 64 | 1011.7 |
| 20260509123053 | 7 | 307 | 0.0 | 0.0 | 0.00 | 0.00 | 0.00 | 60 | 1011.7 |
| 20260509121552 | 7 | 307 | 0.0 | 0.0 | 0.00 | 0.00 | 0.00 | 56 | 1011.6 |
| 20260509120049 | 7 | 307 | 0.0 | 0.0 | 0.00 | 0.00 | 0.00 | 53 | 1011.6 |
| 20260509114548 | 7 | 307 | 0.0 | 0.0 | 0.00 | 0.00 | 0.00 | 52 | 1011.7 |
| 20260509113051 | 7 | 307 | 0.0 | 0.0 | 0.00 | 0.00 | 0.00 | 56 | 1011.7 |
| 20260509111546 | 7 | 307 | 0.0 | 0.0 | 0.00 | 0.00 | 0.00 | 57 | 1011.7 |
| 20260509110043 | 8 | 307 | 0.0 | 0.0 | 0.00 | 0.00 | 0.00 | 57 | 1011.7 |
| 20260509104540 | 8 | 307 | 0.0 | 0.0 | 0.00 | 0.00 | 0.00 | 60 | 1011.9 |
| 20260509103038 | 8 | 307 | 0.0 | 0.0 | 0.00 | 0.00 | 0.00 | 63 | 1011.9 |
| 20260509101548 | 8 | 307 | 0.0 | 0.0 | 0.00 | 0.00 | 0.00 | 63 | 1012.1 |
| 20260509100035 | 8 | 307 | 0.0 | 0.0 | 0.00 | 0.00 | 0.00 | 65 | 1012.1 |
| 20260509094533 | 8 | 307 | 0.0 | 0.0 | 0.00 | 0.00 | 0.00 | 64 | 1012.2 |
| 20260509093033 | 8 | 307 | 0.0 | 0.0 | 0.00 | 0.00 | 0.00 | 64 | 1012.2 |
| 20260509091528 | 9 | 307 | 0.0 | 0.0 | 0.00 | 0.00 | 0.00 | 63 | 1012.5 |
| 20260509090026 | 9 | 307 | 0.0 | 0.0 | 0.00 | 0.00 | 0.00 | 62 | 1012.7 |
| 20260509084526 | 9 | 307 | 0.0 | 0.0 | 0.00 | 0.00 | 0.00 | 59 | 1012.7 |
| 20260509083022 | 9 | 307 | 0.0 | 0.0 | 0.00 | 0.00 | 0.00 | 57 | 1012.8 |
| 20260509081521 | 9 | 307 | 0.0 | 0.0 | 0.00 | 0.00 | 0.00 | 55 | 1012.8 |
| 20260509080021 | 9 | 307 | 0.0 | 0.0 | 0.00 | 0.00 | 0.00 | 54 | 1012.8 |
| 20260509074517 | 10 | 307 | 0.0 | 0.0 | 0.00 | 0.00 | 0.00 | 54 | 1013.0 |
| 20260509073015 | 10 | 307 | 0.0 | 0.0 | 0.00 | 0.00 | 0.00 | 53 | 1013.2 |
| 20260509071513 | 10 | 307 | 0.0 | 0.0 | 0.00 | 0.00 | 0.00 | 48 | 1013.3 |
| 20260509070010 | 10 | 307 | 0.0 | 0.0 | 0.00 | 0.00 | 0.00 | 47 | 1013.3 |
| 20260509064510 | 10 | 307 | 0.0 | 0.0 | 0.00 | 0.00 | 0.00 | 46 | 1013.3 |
| 20260509063009 | 10 | 307 | 0.0 | 0.0 | 0.00 | 0.00 | 0.00 | 46 | 1013.3 |
| 20260509061508 | 10 | 307 | 0.0 | 0.0 | 0.00 | 0.00 | 0.00 | 47 | 1013.4 |
| 20260509060008 | 10 | 307 | 0.0 | 0.0 | 0.00 | 0.00 | 0.00 | 45 | 1013.3 |
| 20260509054507 | 11 | 307 | 0.0 | 0.0 | 0.00 | 0.00 | 0.00 | 45 | 1013.2 |
| 20260509053007 | 11 | 307 | 0.0 | 0.0 | 0.00 | 0.00 | 0.00 | 45 | 1013.2 |
| 20260509051511 | 11 | 307 | 0.0 | 0.0 | 0.00 | 0.00 | 0.00 | 45 | 1013.2 |
| 20260509050005 | 11 | 307 | 0.0 | 0.0 | 0.00 | 0.00 | 0.00 | 46 | 1013.1 |
| 20260509044505 | 12 | 307 | 0.0 | 0.0 | 0.00 | 0.00 | 0.00 | 45 | 1013.1 |
| 20260509043005 | 12 | 307 | 0.0 | 0.0 | 0.00 | 0.00 | 0.00 | 46 | 1012.9 |
| 20260509041504 | 13 | 307 | 0.0 | 0.0 | 0.00 | 0.00 | 0.00 | 47 | 1012.8 |
| 20260509040003 | 13 | 307 | 0.0 | 0.0 | 0.00 | 0.00 | 0.00 | 45 | 1012.7 |
| 20260509034511 | 15 | 307 | 0.0 | 0.0 | 0.00 | 0.00 | 0.00 | 43 | 1012.6 |
| 20260509033002 | 16 | 307 | 0.0 | 0.0 | 0.00 | 0.00 | 0.00 | 46 | 1012.4 |
| 20260509031501 | 17 | 307 | 0.0 | 0.0 | 0.00 | 0.00 | 0.00 | 46 | 1012.3 |
| 20260509030000 | 18 | 307 | 0.0 | 0.0 | 0.00 | 0.00 | 0.00 | 44 | 1012.3 |
| 20260509024600 | 19 | 307 | 0.0 | 0.0 | 0.00 | 0.00 | 0.00 | 43 | 1012.2 |
| 20260509023100 | 20 | 307 | 0.0 | 0.0 | 0.00 | 0.00 | 0.00 | 42 | 1012.2 |
| 20260509021600 | 20 | 323 | 0.0 | 0.0 | 0.00 | 0.00 | 0.00 | 41 | 1012.1 |
| 20260509020059 | 21 | 297 | 0.0 | 3.2 | 0.00 | 0.00 | 0.00 | 39 | 1012.2 |
| 20260509014558 | 21 | 348 | 0.0 | 4.8 | 0.00 | 0.00 | 0.00 | 37 | 1012.2 |
| 20260509013059 | 22 | 309 | 0.0 | 14.5 | 0.00 | 0.00 | 0.00 | 35 | 1012.2 |
| 20260509011558 | 22 | 333 | 0.0 | 4.8 | 0.00 | 0.00 | 0.00 | 33 | 1012.3 |
| 20260509004620 | 23 | 324 | 0.0 | 17.7 | 0.00 | 0.00 | 0.00 | 31 | 1012.3 |
| 20260509003055 | 23 | 292 | 0.0 | 20.9 | 0.00 | 0.00 | 0.00 | 29 | 1012.1 |
| 20260509001555 | 24 | 323 | 0.0 | 20.9 | 0.00 | 0.00 | 0.00 | 29 | 1012.3 |
| 20260509000053 | 24 | 43 | 0.0 | 27.4 | 0.00 | 0.00 | 0.00 | 27 | 1012.4 |
| 20260508234552 | 25 | 292 | 0.0 | 14.5 | 0.00 | 0.00 | 0.00 | 32 | 1012.4 |
| 20260508233052 | 25 | 293 | 3.2 | 19.3 | 0.00 | 0.00 | 0.00 | 31 | 1012.3 |
| 20260508231555 | 25 | 313 | 0.0 | 17.7 | 0.00 | 0.00 | 0.00 | 35 | 1012.4 |
| 20260508230051 | 26 | 297 | 1.6 | 16.1 | 0.00 | 0.00 | 0.00 | 34 | 1012.5 |
| 20260508224551 | 26 | 315 | 0.0 | 3.2 | 0.00 | 0.00 | 0.00 | 30 | 1012.6 |
| 20260508223049 | 27 | 355 | 0.0 | 8.0 | 0.00 | 0.00 | 0.00 | 26 | 1012.7 |
| 20260508221543 | 27 | 350 | 0.0 | 14.5 | 0.00 | 0.00 | 0.00 | 24 | 1013.0 |
| 20260508220040 | 28 | 305 | 1.6 | 19.3 | 0.00 | 0.00 | 0.00 | 23 | 1013.3 |
| 20260508214555 | 28 | 5 | 0.0 | 17.7 | 0.00 | 0.00 | 0.00 | 22 | 1013.3 |